Regional Weather Roundup
Issued by NWS

Home | Current Version | Previous Version | Graphics & Text | Print | Product List | Glossary On
Versions: 1 2 3 4 5 6 7 8 9 10 11 12 13 14 15 16 17 18 19 20 21 22 23 24 25 26 27 28 29 30 31 32 33 34 35 36 37 38 39 40 41 42 43 44 45 46 47 48 49 50
000
ASUS45 KBOU 281210
RWRCO

WEATHER ROUNDUP FOR COLORADO
NATIONAL WEATHER SERVICE DENVER/BOULDER CO
600 AM MDT TUE JUL 28 2015

NOTE: "FAIR" INDICATES FEW OR NO CLOUDS BELOW 12000 FEET WITH NO
SIGNIFICANT WEATHER AND/OR OBSTRUCTIONS TO VISIBILITY.

COZ001>005-013-030-031-281300-
...NORTHWEST COLORADO...

CITY           SKY/WX    TMP DP  RH WIND       PRES   REMARKS
CRAIG          CLEAR     41  34  76 CALM      30.28R
HAYDEN         CLEAR     45  30  57 SW3       30.28R
MEEKER         CLEAR     46  34  62 E5        30.26R
MOUNT WERNER   NOT AVBL
STEAMBOAT SPGS CLEAR     41  35  78 CALM      30.29R
WALDEN         CLEAR     34  30  86 SE9       30.32R WCI  26
$$

COZ006>008-011-281300-
...WEST CENTRAL VALLEYS...

CITY           SKY/WX    TMP DP  RH WIND       PRES   REMARKS
GRAND JUNCTION CLEAR     56  30  37 E5        30.12R
MONTROSE       CLEAR     54  35  48 SE9       30.19R
EAGLE          CLEAR     46  34  61 E5        30.28R
RIFLE          CLEAR     50  38  63 NE3       30.19R
DELTA          CLEAR     54  32  42 CALM      30.15R
NUCLA          CLEAR     54  30  40 E12       30.21R
$$

COZ017>023-064>068-281300-
...SOUTHWEST COLORADO...

CITY           SKY/WX    TMP DP  RH WIND       PRES   REMARKS
DURANGO        CLEAR     46  36  68 CALM      30.21R
CORTEZ         CLEAR     47  35  63 NE7       30.17R
PAGOSA SPRINGS CLEAR     48  36  62 CALM      30.28R
TELLURIDE      CLEAR     49  31  50 S6        30.41R
WOLF CREEK PAS NOT AVBL
$$

COZ009-010-012-014-032>034-037-058>063-281300-
...CENTRAL COLORADO...

CITY           SKY/WX    TMP DP  RH WIND       PRES   REMARKS
ASPEN          CLEAR     45  35  68 SW6       30.30R
BUENA VISTA    CLEAR     46  30  54 W6        30.29R
COPPER MTN     CLEAR     52  16  24 SW12G24   30.55R
BERTHOUD PASS  FAIR      41  32  70 W28G40    30.56R
COTTONWOOD PAS CLEAR     61  14  16 CALM      30.41R
GUNNISON       NOT AVBL
KREMMLING      CLEAR     41  30  65 CALM      30.33R
LEADVILLE      CLEAR     38  26  62 CALM      30.39R
MONARCH PASS   CLEAR     45  27  49 W22       30.65R
SALIDA         CLEAR     55  29  36 CALM      30.32R
SUNLIGHT       CLEAR     50  27  40 CALM      30.50R
WILKERSON PASS CLEAR     50  19  29 SW10      30.51S
$$

COZ069>075-281300-
...SAN LUIS VALLEY/SANGRE DE CRISTO MOUNTAINS...

CITY           SKY/WX    TMP DP  RH WIND       PRES   REMARKS
ALAMOSA        PTCLDY    48  40  73 CALM      30.27R
LA VETA PASS   CLEAR     48  36  61 MISG      30.45R
SAGUACHE       CLEAR     46  34  61 E3        30.31R
$$

COZ035-036-038>040-281300-
...NORTHERN COLORADO FRONT RANGE...

CITY           SKY/WX    TMP DP  RH WIND       PRES   REMARKS
DENVER INTL AP PTCLDY    53  39  59 SE12      30.10R
DMNS CITY PARK   N/A     61  39  43 E9        30.11R
AURORA         PTCLDY    55  39  54 SE10      30.13R
FRONT RANGE AP NOT AVBL
ERIE MUNI ARPT CLEAR     62  37  39 S8        30.08R
BOULDER MUN AP CLEAR     63  39  42 S10G16    30.08R
CENTENNIAL     CLEAR     60  37  42 SE9       30.13R
BROOMFIELD     CLEAR     61  37  41 S5        30.13R
FORT COLLINS   CLEAR     59  39  47 SW8       30.10R
LONGMONT       CLEAR     64  39  40 CALM      30.10R
$$

COZ041-046-047-076>085-087-088-281300-
...PIKES PEAK/PALMER DIVIDE AND SOUTHERN FOOTHILLS...

CITY           SKY/WX    TMP DP  RH WIND       PRES   REMARKS
COLO. SPRINGS  PTCLDY    60  37  42 NE20      30.14R
A. F. ACADEMY  CLEAR     59  36  42 N12       30.16R
ELLICOTT       CLEAR    N/A N/A N/A NE18G28   30.12R
FALCON         CLEAR     55  36  49 N9        30.20R
FORT CARSON    CLEAR     60  40  47 VRB6      30.13R
LIMON          CLEAR     60  30  32 N22G30    30.09R
MONUMENT HILL  CLEAR     48  37  66 E10       30.21R
TRINIDAD       PTCLDY    66  49  54 NW10      30.09R
$$

COZ042>045-048>051-090-091-281300-
...NORTHEAST COLORADO...

CITY           SKY/WX    TMP DP  RH WIND       PRES   REMARKS
GREELEY ARPT   CLEAR     63  34  34 NW14      30.06R
AKRON            N/A    N/A N/A N/A MISG      30.07R
BURLINGTON     CLEAR     65  45  48 N14       30.00R
WRAY           CLEAR     65  49  56 NW13      29.99R
STERLING       NOT AVBL
HOLYOKE        CLEAR     63  50  63 NW12      30.01R
FORT MORGAN    CLEAR     55  31  39 N6        30.08R
$$

COZ086-089-092>099-281300-
...SOUTHEAST COLORADO...

CITY           SKY/WX    TMP DP  RH WIND       PRES   REMARKS
PUEBLO         CLEAR     65  40  39 SW3       30.06R
LA JUNTA       CLEAR     68  43  40 N9        30.03R
LAMAR          PTCLDY    71  47  42 N7        29.96R
SPRINGFIELD      N/A     71  54  54 NW14G24   30.00R
$$


USA.gov is the U.S. government's official web portal to all federal, state and local government web resources and services.